EZY556 EGJJ-EGAA

Flight info

Callsign EZY556
Flight time 0h 48m
Altitude 24000
Route SKERY L22 EMWIP P16 FIMCA DCT TOJAQ DCT UNFIT DCT PENWU DCT NICXI DCT VATRY DCT DUBN34 BELZU
Aircraft A320/M-SDE3FGHIRWY/LB1

Departure

Time 2026-05-05 17:44
Airport Jersey Airport (EGJJ)

Arrival

Time 2026-05-05 18:32
Airport Belfast International Airport (EGAA)
Time Latitude Longitude Altitude Speed Heading
2026-05-05 17:32 49.20495 -2.19734 280 ft 0 kts 353°
2026-05-05 17:37 49.20473 -2.19729 280 ft 4 kts 341°
2026-05-05 17:37 49.20450 -2.19710 289 ft 4 kts 304°
2026-05-05 17:38 49.20445 -2.19687 280 ft 0 kts 264°
2026-05-05 17:38 49.20445 -2.19686 280 ft 0 kts 264°
2026-05-05 17:40 49.20444 -2.19689 280 ft 2 kts 264°
2026-05-05 17:40 49.20436 -2.19818 280 ft 20 kts 264°
2026-05-05 17:40 49.20507 -2.19963 280 ft 18 kts 314°
2026-05-05 17:40 49.20549 -2.20152 284 ft 20 kts 287°
2026-05-05 17:41 49.20593 -2.20371 280 ft 22 kts 288°
2026-05-05 17:41 49.20621 -2.20517 285 ft 8 kts 283°
2026-05-05 17:41 49.20623 -2.20531 282 ft 0 kts 282°
2026-05-05 17:42 49.20628 -2.20576 281 ft 19 kts 279°
2026-05-05 17:42 49.20688 -2.20707 280 ft 12 kts 20°
2026-05-05 17:42 49.20707 -2.20641 284 ft 0 kts 83°
2026-05-05 17:43 49.20709 -2.20612 280 ft 14 kts 83°
2026-05-05 17:43 49.20762 -2.20007 282 ft 96 kts 83°
2026-05-05 17:43 49.20874 -2.18669 373 ft 147 kts 81°
2026-05-05 17:44 49.20929 -2.17179 1171 ft 140 kts 80°
2026-05-05 17:44 49.21013 -2.15721 1851 ft 142 kts 78°
2026-05-05 17:44 49.21129 -2.14122 2218 ft 161 kts 77°
2026-05-05 17:44 49.21280 -2.12306 2527 ft 182 kts 75°
2026-05-05 17:45 49.21730 -2.10430 2890 ft 193 kts 56°
2026-05-05 17:45 49.22591 -2.08849 3395 ft 200 kts 38°
2026-05-05 17:45 49.23868 -2.07738 3783 ft 225 kts 18°
2026-05-05 17:45 49.25487 -2.07481 4465 ft 244 kts 354°
2026-05-05 17:46 49.27098 -2.08413 5402 ft 256 kts 327°
2026-05-05 17:46 49.28357 -2.10368 6364 ft 263 kts 314°
2026-05-05 17:46 49.29643 -2.12403 7289 ft 267 kts 318°
2026-05-05 17:46 49.31013 -2.14368 8196 ft 272 kts 320°
2026-05-05 17:47 49.31961 -2.15696 8820 ft 275 kts 320°
2026-05-05 17:47 49.33847 -2.18341 10044 ft 281 kts 319°
2026-05-05 17:47 49.34836 -2.19742 10397 ft 294 kts 319°
2026-05-05 17:47 49.36389 -2.21968 10762 ft 316 kts 319°
2026-05-05 17:48 49.38008 -2.24323 11471 ft 324 kts 318°
2026-05-05 17:48 49.39646 -2.26731 12288 ft 329 kts 318°
2026-05-05 17:48 49.41311 -2.29183 13070 ft 335 kts 318°
2026-05-05 17:48 49.43004 -2.31682 13830 ft 340 kts 318°
2026-05-05 17:49 49.44720 -2.34225 14510 ft 345 kts 318°
2026-05-05 17:49 49.46460 -2.36802 15224 ft 349 kts 318°
2026-05-05 17:49 49.48190 -2.39365 15934 ft 352 kts 318°
2026-05-05 17:49 49.49959 -2.41984 16665 ft 355 kts 318°
2026-05-05 17:50 49.51747 -2.44628 17385 ft 358 kts 318°
2026-05-05 17:50 49.53545 -2.47299 18093 ft 361 kts 318°
2026-05-05 17:50 49.55362 -2.50004 18716 ft 365 kts 318°
2026-05-05 17:50 49.57192 -2.52730 19326 ft 368 kts 317°
2026-05-05 17:51 49.59045 -2.55484 19913 ft 371 kts 317°
2026-05-05 17:51 49.60912 -2.58258 20516 ft 374 kts 317°
2026-05-05 17:51 49.62789 -2.61058 21114 ft 377 kts 317°
2026-05-05 17:51 49.64683 -2.63886 21696 ft 380 kts 317°
2026-05-05 17:52 49.66589 -2.66741 22243 ft 383 kts 317°
2026-05-05 17:52 49.68505 -2.69615 22833 ft 386 kts 317°
2026-05-05 17:52 49.70438 -2.72517 23379 ft 389 kts 317°
2026-05-05 17:52 49.72383 -2.75441 23813 ft 392 kts 316°
2026-05-05 17:53 49.74340 -2.78385 23931 ft 391 kts 316°
2026-05-05 17:53 49.76238 -2.81245 23955 ft 373 kts 316°
2026-05-05 17:53 49.78083 -2.84028 23958 ft 368 kts 316°
2026-05-05 17:53 49.81379 -2.89004 23960 ft 367 kts 316°
2026-05-05 17:54 49.85025 -2.94515 23962 ft 366 kts 316°
2026-05-05 17:54 49.88664 -3.00024 23962 ft 365 kts 316°
2026-05-05 17:54 49.92295 -3.05533 23961 ft 366 kts 316°
2026-05-05 17:54 49.95918 -3.11059 23965 ft 363 kts 315°
2026-05-05 17:55 49.99499 -3.16613 23966 ft 364 kts 310°
2026-05-05 17:55 50.02244 -3.23222 23968 ft 364 kts 300°
2026-05-05 17:55 50.04968 -3.29838 23964 ft 364 kts 311°
2026-05-05 17:55 50.08937 -3.34636 23971 ft 363 kts 332°
2026-05-05 17:56 50.13434 -3.38211 23972 ft 363 kts 332°
2026-05-05 17:56 50.17920 -3.41840 23971 ft 363 kts 331°
2026-05-05 17:56 50.22409 -3.45472 23962 ft 364 kts 331°
2026-05-05 17:56 50.26914 -3.49116 23963 ft 365 kts 331°
2026-05-05 17:57 50.31421 -3.52773 23970 ft 365 kts 331°
2026-05-05 17:57 50.35930 -3.56439 23973 ft 365 kts 331°
2026-05-05 17:57 50.40439 -3.60117 23983 ft 365 kts 330°
2026-05-05 17:57 50.44936 -3.63793 23982 ft 364 kts 330°
2026-05-05 17:58 50.49449 -3.67427 23984 ft 365 kts 333°
2026-05-05 17:58 50.54095 -3.70637 23982 ft 365 kts 335°
2026-05-05 17:58 50.58783 -3.73694 23988 ft 364 kts 335°
2026-05-05 17:58 50.63446 -3.76807 23994 ft 363 kts 334°
2026-05-05 17:59 50.68082 -3.79977 23991 ft 363 kts 334°
2026-05-05 17:59 50.72715 -3.83161 23989 ft 363 kts 334°
2026-05-05 17:59 50.77326 -3.86328 23987 ft 363 kts 334°
2026-05-05 17:59 50.81959 -3.89516 24001 ft 363 kts 334°
2026-05-05 18:00 50.86604 -3.92708 23997 ft 364 kts 334°
2026-05-05 18:00 50.91247 -3.95907 24000 ft 364 kts 334°
2026-05-05 18:00 50.95826 -3.99089 24001 ft 364 kts 334°
2026-05-05 18:00 51.00526 -4.02357 23998 ft 364 kts 334°
2026-05-05 18:01 51.05173 -4.05586 23997 ft 364 kts 333°
2026-05-05 18:01 51.09754 -4.08763 23996 ft 364 kts 334°
2026-05-05 18:01 51.14390 -4.11993 23995 ft 364 kts 334°
2026-05-05 18:01 51.19027 -4.15239 23994 ft 364 kts 334°
2026-05-05 18:02 51.23664 -4.18498 23993 ft 364 kts 334°
2026-05-05 18:02 51.28298 -4.21757 24007 ft 364 kts 334°
2026-05-05 18:02 51.32996 -4.25052 24004 ft 364 kts 334°
2026-05-05 18:02 51.37566 -4.28274 24007 ft 364 kts 334°
2026-05-05 18:03 51.42195 -4.31572 24002 ft 364 kts 334°
2026-05-05 18:03 51.46783 -4.34983 24021 ft 363 kts 333°
2026-05-05 18:03 51.51334 -4.38491 24029 ft 362 kts 333°
2026-05-05 18:03 51.55940 -4.42039 24028 ft 362 kts 332°
2026-05-05 18:04 51.60493 -4.45522 24028 ft 362 kts 333°
2026-05-05 18:04 51.65043 -4.49011 24026 ft 362 kts 333°
2026-05-05 18:04 51.69591 -4.52508 24024 ft 362 kts 333°
2026-05-05 18:04 51.74075 -4.55960 24031 ft 362 kts 333°
2026-05-05 18:05 51.78272 -4.60303 24025 ft 358 kts 314°
2026-05-05 18:05 51.81525 -4.66493 24021 ft 357 kts 308°
2026-05-05 18:05 51.84645 -4.72609 24031 ft 357 kts 308°
2026-05-05 18:05 51.87816 -4.78809 24025 ft 358 kts 308°
2026-05-05 18:06 51.90978 -4.85031 24034 ft 359 kts 308°
2026-05-05 18:06 51.93121 -4.89263 24040 ft 358 kts 308°
2026-05-05 18:06 51.97289 -4.97537 24053 ft 358 kts 308°
2026-05-05 18:06 52.00488 -5.03729 24055 ft 358 kts 314°
2026-05-05 18:07 52.04620 -5.08199 24055 ft 359 kts 332°
2026-05-05 18:07 52.09101 -5.11816 24051 ft 359 kts 332°
2026-05-05 18:07 52.13562 -5.15465 24049 ft 359 kts 332°
2026-05-05 18:07 52.18028 -5.19120 24058 ft 359 kts 332°
2026-05-05 18:08 52.22490 -5.22760 24058 ft 359 kts 332°
2026-05-05 18:08 52.26951 -5.26422 24058 ft 359 kts 332°
2026-05-05 18:08 52.31411 -5.30096 24056 ft 359 kts 332°
2026-05-05 18:08 52.35876 -5.33774 24061 ft 359 kts 332°
2026-05-05 18:09 52.40338 -5.37458 24070 ft 359 kts 332°
2026-05-05 18:09 52.44794 -5.41148 24069 ft 358 kts 331°
2026-05-05 18:09 52.49244 -5.44845 24068 ft 358 kts 331°
2026-05-05 18:09 52.53686 -5.48542 24069 ft 358 kts 331°
2026-05-05 18:10 52.58131 -5.52235 24059 ft 358 kts 331°
2026-05-05 18:10 52.62575 -5.55935 24064 ft 358 kts 331°
2026-05-05 18:10 52.67009 -5.59640 24082 ft 357 kts 330°
2026-05-05 18:10 52.71432 -5.63357 24082 ft 357 kts 330°
2026-05-05 18:11 52.75851 -5.67084 24074 ft 356 kts 330°
2026-05-05 18:11 52.80259 -5.70805 24060 ft 356 kts 330°
2026-05-05 18:11 52.84669 -5.74526 24060 ft 356 kts 330°
2026-05-05 18:11 52.89070 -5.78255 24073 ft 356 kts 330°
2026-05-05 18:12 52.93474 -5.81994 24072 ft 355 kts 330°
2026-05-05 18:12 52.97866 -5.85730 24070 ft 355 kts 330°
2026-05-05 18:12 53.02258 -5.89469 24066 ft 354 kts 330°
2026-05-05 18:12 53.06637 -5.93221 24068 ft 354 kts 330°
2026-05-05 18:13 53.11019 -5.96974 24083 ft 354 kts 330°
2026-05-05 18:13 53.15407 -6.00737 24075 ft 354 kts 330°
2026-05-05 18:13 53.19791 -6.04516 24070 ft 355 kts 330°
2026-05-05 18:13 53.24176 -6.08295 24067 ft 355 kts 330°
2026-05-05 18:14 53.27774 -6.11402 24063 ft 354 kts 330°
2026-05-05 18:14 53.31258 -6.14420 24060 ft 354 kts 330°
2026-05-05 18:14 53.35526 -6.18133 24050 ft 354 kts 330°
2026-05-05 18:14 53.39901 -6.21940 24051 ft 354 kts 330°
2026-05-05 18:15 53.44283 -6.25767 24064 ft 354 kts 329°
2026-05-05 18:15 53.48707 -6.29404 24063 ft 357 kts 338°
2026-05-05 18:15 53.53642 -6.30480 24065 ft 363 kts 360°
2026-05-05 18:15 53.58699 -6.30104 24077 ft 364 kts 359°
2026-05-05 18:16 53.63691 -6.29790 23645 ft 354 kts 359°
2026-05-05 18:16 53.68527 -6.29486 23096 ft 351 kts 359°
2026-05-05 18:16 53.73443 -6.29177 22539 ft 347 kts 359°
2026-05-05 18:16 53.78247 -6.28871 21999 ft 344 kts 359°
2026-05-05 18:17 53.83009 -6.28559 21473 ft 340 kts 359°
2026-05-05 18:17 53.87685 -6.28245 20656 ft 334 kts 359°
2026-05-05 18:17 53.92312 -6.27943 19810 ft 331 kts 359°
2026-05-05 18:17 53.96889 -6.27649 18978 ft 328 kts 359°
2026-05-05 18:18 54.01372 -6.27346 18142 ft 326 kts 359°
2026-05-05 18:18 54.05860 -6.27042 17326 ft 322 kts 359°
2026-05-05 18:18 54.10333 -6.26745 16520 ft 319 kts 359°
2026-05-05 18:18 54.14749 -6.26456 15734 ft 317 kts 359°
2026-05-05 18:19 54.19094 -6.25273 14934 ft 320 kts 15°
2026-05-05 18:19 54.21632 -6.23845 14461 ft 319 kts 15°
2026-05-05 18:19 54.23743 -6.22676 14071 ft 319 kts 15°
2026-05-05 18:19 54.25854 -6.21514 13667 ft 318 kts 15°
2026-05-05 18:20 54.27954 -6.20360 13236 ft 317 kts 15°
2026-05-05 18:20 54.30049 -6.19200 12810 ft 316 kts 15°
2026-05-05 18:20 54.32137 -6.18040 12382 ft 314 kts 15°
2026-05-05 18:20 54.34212 -6.16884 11982 ft 313 kts 15°
2026-05-05 18:21 54.36278 -6.15728 11573 ft 311 kts 15°
2026-05-05 18:21 54.38329 -6.14578 11168 ft 309 kts 15°
2026-05-05 18:21 54.40298 -6.13121 10763 ft 308 kts 32°
2026-05-05 18:21 54.41808 -6.10627 10375 ft 298 kts 47°
2026-05-05 18:22 54.43108 -6.07902 9975 ft 293 kts 49°
2026-05-05 18:22 54.44374 -6.05194 9557 ft 290 kts 49°
2026-05-05 18:22 54.45610 -6.02545 9131 ft 287 kts 49°
2026-05-05 18:22 54.46850 -5.99882 8719 ft 283 kts 49°
2026-05-05 18:23 54.48085 -5.97242 8317 ft 282 kts 49°
2026-05-05 18:23 54.49296 -5.94644 8310 ft 278 kts 49°
2026-05-05 18:23 54.50512 -5.92028 7972 ft 277 kts 49°
2026-05-05 18:23 54.51712 -5.89456 7588 ft 275 kts 49°
2026-05-05 18:24 54.52902 -5.86900 7211 ft 272 kts 49°
2026-05-05 18:24 54.54083 -5.84368 6839 ft 270 kts 49°
2026-05-05 18:24 54.55252 -5.81878 6466 ft 262 kts 49°
2026-05-05 18:24 54.56366 -5.79498 6077 ft 248 kts 49°
2026-05-05 18:25 54.57468 -5.77320 5676 ft 234 kts 38°
2026-05-05 18:25 54.57902 -5.76760 5582 ft 228 kts 29°
2026-05-05 18:25 54.60234 -5.75751 5365 ft 204 kts 353°
2026-05-05 18:25 54.61581 -5.76432 5233 ft 203 kts 331°
2026-05-05 18:26 54.62694 -5.77948 5101 ft 210 kts 317°
2026-05-05 18:26 54.63735 -5.79721 4979 ft 210 kts 316°
2026-05-05 18:26 54.64783 -5.81492 4850 ft 211 kts 318°
2026-05-05 18:26 54.65834 -5.83261 4715 ft 211 kts 317°
2026-05-05 18:27 54.66879 -5.85028 4586 ft 210 kts 317°
2026-05-05 18:27 54.67915 -5.86783 4445 ft 208 kts 318°
2026-05-05 18:27 54.68943 -5.88525 4266 ft 206 kts 318°
2026-05-05 18:27 54.69961 -5.90252 4037 ft 204 kts 318°
2026-05-05 18:28 54.71915 -5.93747 3483 ft 201 kts 304°
2026-05-05 18:28 54.72303 -5.96038 3260 ft 201 kts 274°
2026-05-05 18:28 54.71970 -5.98372 3026 ft 201 kts 250°
2026-05-05 18:29 54.71385 -6.00543 2756 ft 195 kts 249°
2026-05-05 18:29 54.70821 -6.02635 2516 ft 185 kts 250°
2026-05-05 18:29 54.70299 -6.04582 2247 ft 173 kts 250°
2026-05-05 18:29 54.69810 -6.06413 2020 ft 163 kts 251°
2026-05-05 18:30 54.69347 -6.08147 1796 ft 155 kts 251°
2026-05-05 18:30 54.69051 -6.09252 1652 ft 151 kts 250°
2026-05-05 18:30 54.68617 -6.10876 1455 ft 146 kts 251°
2026-05-05 18:30 54.68204 -6.12421 1242 ft 139 kts 251°
2026-05-05 18:31 54.67801 -6.13928 1042 ft 137 kts 252°
2026-05-05 18:31 54.67405 -6.15404 850 ft 136 kts 251°
2026-05-05 18:31 54.67009 -6.16884 666 ft 136 kts 251°
2026-05-05 18:31 54.66615 -6.18352 479 ft 135 kts 252°
2026-05-05 18:32 54.66222 -6.19810 302 ft 134 kts 251°
2026-05-05 18:32 54.65871 -6.21156 274 ft 111 kts 247°
2026-05-05 18:32 54.65641 -6.22013 272 ft 37 kts 245°
2026-05-05 18:32 54.65574 -6.22245 272 ft 30 kts 243°
2026-05-05 18:33 54.65483 -6.22578 274 ft 23 kts 246°
2026-05-05 18:33 54.65528 -6.22719 272 ft 16 kts 342°
2026-05-05 18:33 54.65640 -6.22775 272 ft 17 kts 342°
2026-05-05 18:33 54.65736 -6.22747 272 ft 13 kts 59°
2026-05-05 18:34 54.65748 -6.22632 272 ft 8 kts 83°
2026-05-05 18:34 54.65754 -6.22541 272 ft 7 kts 84°
2026-05-05 18:34 54.65761 -6.22414 272 ft 16 kts 85°
2026-05-05 18:34 54.65774 -6.22188 272 ft 16 kts 79°
2026-05-05 18:35 54.65821 -6.21995 272 ft 19 kts 64°
2026-05-05 18:35 54.65880 -6.21776 272 ft 21 kts 66°
2026-05-05 18:35 54.65945 -6.21533 272 ft 23 kts 64°
2026-05-05 18:35 54.66005 -6.21309 272 ft 18 kts 65°
2026-05-05 18:36 54.66082 -6.21223 272 ft 13 kts 336°
2026-05-05 18:36 54.66126 -6.21291 272 ft 2 kts 254°
2026-05-05 18:36 54.66120 -6.21316 272 ft 2 kts 245°
2026-05-05 18:36 54.66114 -6.21337 272 ft 2 kts 245°
2026-05-05 18:37 54.66109 -6.21355 275 ft 1 kts 245°
2026-05-05 18:37 54.66109 -6.21357 275 ft 0 kts 245°